RYR4BS EBCI-EGCC

Flight info

Callsign RYR4BS
Flight time N/A
Altitude 38000
Route CIV UY50 LUMEN L610 LAM UN57 WELIN T420 ELVOS
Aircraft B38M/M-SDE1FGHILORVWXY/HB1

Departure

Time 2026-05-05 12:49
Airport Brussels South Charleroi Airport (EBCI)

Arrival

Time N/A
Airport Manchester Airport (EGCC)
Time Latitude Longitude Altitude Speed Heading
2026-05-05 12:06 50.46852 4.47044 587 ft 0 kts 335°
2026-05-05 12:42 50.46835 4.47056 587 ft 4 kts 335°
2026-05-05 12:42 50.46812 4.47070 587 ft 4 kts
2026-05-05 12:42 50.46797 4.47056 588 ft 2 kts 65°
2026-05-05 12:42 50.46788 4.47023 588 ft 3 kts 65°
2026-05-05 12:43 50.46787 4.47018 588 ft 1 kts 65°
2026-05-05 12:45 50.46787 4.47020 588 ft 1 kts 65°
2026-05-05 12:46 50.46793 4.47039 588 ft 3 kts 65°
2026-05-05 12:46 50.46805 4.47080 588 ft 5 kts 65°
2026-05-05 12:46 50.46823 4.47142 588 ft 7 kts 64°
2026-05-05 12:46 50.46851 4.47227 587 ft 10 kts 66°
2026-05-05 12:47 50.46840 4.47323 589 ft 8 kts 141°
2026-05-05 12:47 50.46790 4.47362 591 ft 8 kts 154°
2026-05-05 12:47 50.46751 4.47390 592 ft 0 kts 156°
2026-05-05 12:48 50.46726 4.47408 593 ft 9 kts 156°
2026-05-05 12:48 50.46661 4.47453 598 ft 10 kts 158°
2026-05-05 12:48 50.46608 4.47418 599 ft 12 kts 236°
2026-05-05 12:49 50.46513 4.47100 600 ft 61 kts 245°
2026-05-05 12:49 50.46232 4.46137 593 ft 133 kts 245°
2026-05-05 12:49 50.45765 4.44546 694 ft 177 kts 245°
2026-05-05 12:49 50.45237 4.42840 1532 ft 175 kts 249°
2026-05-05 12:50 50.44724 4.41027 2197 ft 185 kts 248°
2026-05-05 12:50 50.44185 4.39097 2906 ft 202 kts 248°
2026-05-05 12:50 50.43583 4.36961 3551 ft 224 kts 247°
2026-05-05 12:50 50.42915 4.34605 4236 ft 247 kts 246°
2026-05-05 12:51 50.42185 4.32051 4971 ft 267 kts 246°
2026-05-05 12:51 50.41403 4.29308 5834 ft 281 kts 246°
2026-05-05 12:51 50.41055 4.26322 6986 ft 280 kts 273°
2026-05-05 12:51 50.41512 4.23359 7812 ft 289 kts 298°
2026-05-05 12:52 50.42544 4.20642 8839 ft 291 kts 303°
2026-05-05 12:52 50.43612 4.17898 9810 ft 297 kts 303°